Location: Young's Pond
(41.2695°N, 72.7766°W)
Time: 14:49:31
(UTC-04:00)

Spot 4 - Visible Passes

Search period start: 02 September 2014 00:00
Search period end: 12 September 2014 00:00
Orbit: 706 x 725 km, 98.5° (Epoch: 02 September)

Date Brightness Start Highest point End Pass type
(mag) Time Alt. Az. Time Alt. Az. Time Alt. Az.
02 Sep 4.4 22:07:13 52° N 22:07:13 52° N 22:10:57 10° N visible
03 Sep 5.2 21:15:37 24° ENE 21:15:37 24° ENE 21:19:08 10° NNE visible
03 Sep 5.6 22:54:47 28° NW 22:54:47 28° NW 22:57:33 10° NNW visible
04 Sep 4.6 22:03:10 46° NNE 22:03:10 46° NNE 22:06:41 10° N visible
04 Sep 6.8 23:42:21 10° WNW 23:42:21 10° WNW 23:42:32 10° WNW visible
05 Sep 5.3 21:11:34 22° ENE 21:11:34 22° ENE 21:14:45 10° NNE visible
05 Sep 5.7 22:50:44 28° NW 22:50:44 28° NW 22:53:22 10° NNW visible
06 Sep 4.8 21:59:08 41° NNE 21:59:08 41° NNE 22:02:24 10° N visible
06 Sep 6.8 23:38:18 11° WNW 23:38:18 11° WNW 23:38:38 10° WNW visible
07 Sep 5.5 21:07:31 20° NE 21:07:31 20° NE 21:10:22 10° NNE visible
07 Sep 5.7 22:46:42 28° NW 22:46:42 28° NW 22:49:10 10° NNW visible
08 Sep 5.0 21:55:05 36° NNE 21:55:05 36° NNE 21:58:07 10° N visible
08 Sep 6.8 23:34:16 11° WNW 23:34:16 11° WNW 23:34:41 10° NW visible
09 Sep 5.6 21:03:29 18° NE 21:03:29 18° NE 21:05:56 10° NNE visible
09 Sep 5.8 22:42:39 27° NW 22:42:39 27° NW 22:44:58 10° NNW visible
10 Sep 5.1 21:51:03 32° NNE 21:51:03 32° NNE 21:53:50 10° N visible
10 Sep 6.8 23:30:13 12° NW 23:30:13 12° NW 23:30:40 10° NW visible
11 Sep 5.7 20:59:26 16° NE 20:59:26 16° NE 21:01:30 10° NNE visible
11 Sep 5.8 22:38:36 26° NNW 22:38:36 26° NNW 22:40:45 10° NNW visible
